CAPE
1126 970 789 79 2 0 0 0 0 0 0 0 0 0 0 0 0 0 0 1 0 2 19 17 5 20 13 22 15 5 3 4 8 0 0 0 0 8 5 21 13 7 10
943 749 312 4 0 0 0 0 0 0 0 0 0 0 0 0 0 0 0 0 0 6 15 8 17 21 11 1 2 0 0 4 5 0 1 0 0 0 6 22 3 4 1
751 329 19 0 0 0 0 0 0 0 0 0 0 0 0 0 0 0 0 0 10 2 0 5 2 13 6 0 11 4 3 5 0 0 0 0 0 0 0 9 5 0 0
351 37 1 0 0 0 0 0 0 0 0 0 0 0 0 0 0 0 0 0 1 3 3 1 0 0 5 11 10 1 1 1 0 0 0 0 0 0 0 0 0 0 0
97 12 0 0 0 0 0 0 0 0 0 0 0 0 0 0 0 0 0 0 1 1 0 0 0 0 11 14 13 1 9 0 0 0 0 0 0 0 0 1 1 0 0
33 3 0 0 0 0 0 0 0 0 0 0 0 0 0 0 0 0 4 0 0 0 0 0 0 0 0 0 0 0 14 1 0 0 0 4 0 0 0 3 1 1 1
0 0 0 3 0 0 0 0 0 0 0 0 0 0 0 0 0 0 7 0 0 0 0 0 0 2 1 0 0 0 0 14 18 4 2 0 2 0 0 1 1 1 0
0 0 4 3 0 0 0 0 0 0 0 0 0 0 0 0 9 14 7 0 0 0 0 0 0 0 0 0 0 0 0 0 0 6 4 3 8 1 0 0 0 0 0
15 6 3 0 0 0 0 0 0 0 0 0 0 0 0 0 5 8 0 0 0 0 0 0 0 0 0 0 0 0 0 0 1 1 0 5 0 0 0 0 0 0 0
0 33 3 0 0 0 0 0 0 0 0 0 0 0 2 0 0 0 0 0 0 0 0 0 0 0 0 0 1 2 1 0 1 0 0 1 0 0 0 1 0 1 1
31 0 0 0 0 0 0 0 0 0 0 0 0 0 0 0 0 0 0 0 0 0 0 1 4 2 0 0 0 0 0 2 0 1 1 2 0 1 4 0 0 0 0
0 0 0 0 0 0 0 0 0 0 0 0 0 0 0 0 0 0 0 0 0 2 1 2 1 0 0 0 1 3 7 6 1 1 2 2 1 2 3 0 0 0 0
0 0 0 0 0 0 0 0 0 0 0 0 0 0 0 0 0 0 0 0 0 1 2 1 0 2 1 0 0 0 4 1 0 2 2 2 0 0 1 1 0 0 0
0 0 0 0 0 0 0 0 0 0 0 0 0 0 0 0 0 0 0 1 1 1 0 0 2 1 2 1 0 1 0 1 1 0 1 1 1 1 0 0 0 0 0
0 0 0 0 0 0 0 0 0 0 0 0 0 0 0 0 0 0 0 1 0 0 0 1 0 0 0 0 0 0 1 1 1 1 1 1 0 1 1 0 0 0 0
0 0 0 0 0 0 0 0 0 0 0 0 0 0 0 0 0 0 0 0 1 0 2 2 2 2 1 1 0 1 2 1 0 1 0 1 0 1 2 0 0 0 0
0 0 0 0 0 0 0 0 0 0 0 0 0 0 0 0 0 0 0 0 1 1 2 2 2 2 1 1 1 1 2 2 1 1 0 0 1 0 1 0 0 0 0
0 0 0 0 0 0 0 0 0 0 0 0 0 0 0 0 1 1 1 1 1 1 1 1 1 1 1 1 1 1 0 1 0 0 0 1 0 1 0 0 0 0 0
0 0 0 0 0 0 0 0 0 0 0 0 0 0 0 0 1 1 1 2 2 2 1 1 0 0 0 0 1 0 0 0 0 1 1 1 1 1 0 0 0 0 0
0 0 0 0 0 0 0 0 0 0 0 0 0 0 0 1 2 2 2 1 1 1 1 0 0 0 0 0 0 0 0 1 1 0 0 1 0 0 0 0 0 1 0
0 0 0 0 0 0 0 0 0 0 0 0 0 0 0 2 3 2 2 1 1 0 0 0 2 2 1 1 0 0 0 0 0 0 0 0 0 0 0 0 0 1 0
0 0 0 0 0 0 0 0 0 0 0 0 0 1 0 1 2 2 1 1 0 0 0 1 1 1 1 0 0 0 0 0 0 0 0 0 0 0 0 0 0 0 0
0 0 0 0 0 0 0 0 0 0 0 0 1 2 2 2 2 2 1 1 0 2 2 0 1 0 0 0 0 0 0 0 0 0 0 0 0 0 0 0 0 0 0
0 0 0 0 0 0 0 0 0 0 0 1 1 1 2 3 2 1 1 1 0 0 0 0 0 0 0 0 0 0 0 0 0 0 0 0 0 0 0 0 0 0 0
0 0 0 0 0 0 0 0 0 0 0 1 1 1 3 3 2 2 1 0 0 0 0 0 0 0 0 0 0 0 0 0 0 0 0 0 0 0 0 0 0 0 0
0 0 0 0 0 0 0 0 0 0 1 1 1 2 2 2 2 2 0 0 0 0 0 0 0 0 0 0 0 0 0 0 0 0 0 0 0 0 0 0 0 0 0
CIN
-205 -207 -221 -520 -211 -0 -0 -0 -0 -0 -0 -0 -0 -0 -0 -0 -0 -0 -0 -9 -0 -5 -14 -9 -14 -23 -35 -28 -28 -44 -44 -32 -11 -14 -0 -15 -14 -23 -38 -7 -20 -17 -18
-269 -276 -387 -667 -0 -0 -0 -0 -0 -0 -0 -0 -0 -0 -0 -0 -0 -0 -0 -0 -0 -8 -16 -21 -20 -17 -24 -25 -24 -44 -0 -38 -11 -0 -25 -0 -0 -49 -30 -9 -18 -27 -30
-327 -425 -591 -71 -0 -0 -0 -0 -0 -0 -0 -0 -0 -0 -0 -0 -0 -0 -0 -0 -15 -22 -7 -30 -48 -31 -19 -3 -27 -37 -32 -34 -0 -0 -0 -0 -0 -0 -37 -14 -16 -0 -0
-447 -575 -257 -0 -0 -0 -0 -0 -0 -0 -0 -0 -0 -0 -0 -0 -0 -0 -0 -0 -17 -35 -39 -23 -0 -0 -11 -15 -18 -18 -23 -41 -0 -0 -0 -0 -1 -0 -0 -0 -0 -0 -0
-561 -622 -0 -0 -0 -0 -0 -0 -0 -0 -0 -0 -0 -0 -0 -0 -0 -0 -0 -0 -29 -13 -0 -0 -0 -0 -10 -24 -23 -5 -11 -5 -0 -0 -0 -3 -1 -2 -0 -0 -0 -0 -0
-600 -409 -0 -0 -0 -0 -0 -0 -0 -0 -0 -0 -0 -0 -0 -0 -0 -0 -16 -0 -0 -0 -0 -0 -0 -0 -0 -0 -0 -0 -5 -6 -4 -0 -0 -0 -4 -0 -0 -0 -0 -0 -0
-0 -0 -0 -492 -0 -0 -0 -0 -0 -0 -0 -0 -0 -0 -0 -0 -0 -0 -28 -0 -0 -0 -0 -0 -1 -8 -8 -0 -0 -0 -0 -2 -0 -3 -0 -1 -1 -6 -0 -0 -0 -0 -0
-0 -0 -266 -406 -0 -0 -0 -0 -0 -0 -0 -0 -0 -0 -0 -1 -31 -25 -20 -0 -16 -0 -0 -0 -0 -0 -0 -0 -0 -0 -0 -0 -0 -0 -1 -1 -3 -5 -0 -0 -0 -0 -0
-435 -438 -376 -0 -0 -0 -0 -0 -0 -0 -0 -0 -0 -0 -0 -0 -37 -85 -19 -0 -0 -0 -0 -0 -0 -0 -0 -0 -0 -0 -0 -2 -0 -1 -3 -2 -0 -0 -0 -1 -0 -0 -0
-59 -363 -136 -0 -0 -0 -0 -0 -0 -0 -0 -0 -0 -0 -24 -0 -0 -0 -0 -0 -0 -0 -0 -0 -0 -0 -0 -0 -0 -0 -0 -0 -0 -0 -0 -0 -0 -0 -0 -1 -0 -0 -0
-325 -0 -0 -0 -0 -0 -0 -0 -0 -0 -0 -0 -0 -0 -0 -0 -0 -0 -0 -0 -0 -0 -0 -0 -0 -0 -0 -0 -0 -0 -0 -0 -0 -0 -0 -0 -0 -1 -1 -1 -0 -0 -1
-0 -0 -0 -0 -0 -0 -0 -0 -0 -0 -0 -0 -0 -0 -0 -0 -0 -0 -0 -0 -0 -0 -0 -1 -1 -1 -0 -0 -0 -0 -0 -1 -0 -0 -0 -0 -0 -1 -1 -0 -0 -0 -0
-0 -0 -0 -0 -0 -0 -0 -0 -0 -0 -0 -0 -0 -0 -0 -0 -0 -0 -0 -0 -0 -0 -0 -3 -0 -3 -0 -1 -0 -1 -1 -0 -0 -0 -0 -0 -0 -0 -2 -0 -0 -0 -0
-0 -0 -0 -0 -0 -0 -0 -0 -0 -0 -0 -0 -0 -0 -0 -0 -0 -0 -0 -0 -0 -0 -0 -0 -0 -0 -0 -0 -0 -1 -0 -0 -0 -8 -0 -0 -1 -0 -0 -0 -0 -0 -0
-0 -0 -0 -0 -0 -0 -0 -0 -0 -0 -0 -0 -0 -0 -0 -0 -0 -0 -0 -0 -0 -0 -1 -0 -0 -0 -0 -0 -0 -1 -0 -0 -0 -0 -0 -0 -0 -0 -0 -0 -0 -0 -0
-0 -0 -0 -0 -0 -0 -0 -0 -0 -0 -0 -0 -0 -0 -0 -0 -0 -0 -0 -0 -0 -0 -0 -0 -0 -0 -0 -0 -0 -0 -0 -0 -0 -0 -0 -0 -0 -0 -0 -0 -0 -0 -0
-0 -0 -0 -0 -0 -0 -0 -0 -0 -0 -0 -0 -0 -0 -0 -0 -0 -0 -0 -0 -0 -0 -0 -0 -0 -0 -0 -0 -0 -0 -0 -1 -0 -0 -1 -0 -0 -0 -0 -0 -0 -0 -0
-0 -0 -0 -0 -0 -0 -0 -0 -0 -0 -0 -0 -0 -0 -0 -0 -0 -0 -0 -0 -0 -0 -0 -0 -0 -0 -0 -0 -0 -0 -2 -0 -0 -0 -0 -0 -0 -0 -0 -0 -0 -0 -0
-0 -0 -0 -0 -0 -0 -0 -0 -0 -0 -0 -0 -0 -0 -0 -0 -0 -0 -0 -0 -0 -0 -0 -0 -0 -0 -0 -0 -0 -0 -0 -0 -0 -0 -0 -0 -0 -0 -0 -7 -0 -0 -0
-0 -0 -0 -0 -0 -0 -0 -0 -0 -0 -0 -0 -0 -0 -0 -0 -0 -0 -0 -0 -0 -0 -0 -0 -0 -0 -0 -0 -0 -0 -0 -0 -0 -0 -0 -0 -0 -0 -0 -0 -0 -0 -0
-0 -0 -0 -0 -0 -0 -0 -0 -0 -0 -0 -0 -0 -0 -0 -0 -0 -0 -0 -0 -0 -0 -0 -0 -0 -0 -0 -0 -0 -0 -0 -0 -0 -0 -0 -0 -0 -0 -0 -0 -0 -0 -0
-0 -0 -0 -0 -0 -0 -0 -0 -0 -0 -0 -0 -0 -0 -0 -0 -0 -0 -0 -0 -0 -0 -0 -0 -0 -0 -0 -0 -0 -0 -0 -0 -0 -0 -0 -0 -0 -0 -0 -0 -0 -0 -0
-0 -0 -0 -0 -0 -0 -0 -0 -0 -0 -0 -0 -0 -0 -0 -0 -0 -0 -0 -0 -0 -0 -1 -0 -0 -0 -0 -0 -0 -0 -0 -0 -0 -0 -0 -0 -0 -0 -0 -0 -0 -0 -0
-0 -0 -0 -0 -0 -0 -0 -0 -0 -0 -0 -0 -0 -0 -0 -0 -0 -0 -0 -0 -0 -0 -0 -0 -1 -0 -0 -0 -0 -0 -0 -0 -0 -0 -0 -0 -0 -0 -0 -0 -0 -0 -13
-0 -0 -0 -0 -0 -0 -0 -0 -0 -0 -0 -0 -0 -0 -0 -0 -0 -0 -0 -0 -0 -0 -0 -0 -0 -0 -0 -0 -0 -0 -0 -0 -0 -0 -0 -0 -0 -0 -0 -0 -0 -0 -0
-0 -0 -0 -0 -0 -0 -0 -0 -0 -0 -0 -0 -0 -0 -0 -0 -0 -0 -0 -0 -0 -0 -0 -0 -0 -0 -0 -0 -0 -0 -0 -0 -0 -0 -0 -0 -0 -0 -0 -0 -0 -0 -0
Wind_Speed
6 5 7 9 10 10 11 12 13 15 17 19 19 20 19 20 20 20 20 21 22 22 23 21 22 23 25 24 25 27 29 28 29 31 29 25 26 29 31 26 29 33 33
5 5 6 9 10 10 12 12 14 16 18 19 20 20 22 23 23 23 22 23 22 24 24 23 27 25 26 26 25 26 27 26 27 30 27 27 25 28 30 29 28 27 33
6 5 7 9 9 10 12 12 15 17 18 20 21 24 25 25 25 24 24 24 24 25 27 30 31 29 28 26 24 26 26 25 26 27 28 24 26 28 29 28 29 31 32
6 6 7 8 9 10 12 13 15 18 20 22 23 24 25 25 25 24 24 24 26 28 31 32 32 29 29 28 27 26 26 25 25 28 28 27 26 28 28 31 30 31 34
6 7 8 9 10 10 11 14 17 20 21 22 24 25 27 27 25 23 24 25 26 29 31 32 29 29 29 28 30 29 27 26 26 29 28 30 27 27 30 29 31 32 32
8 9 10 11 11 11 14 17 19 21 22 23 26 28 28 25 23 22 22 25 27 29 30 29 26 26 26 29 32 32 26 22 20 25 25 26 26 28 30 30 31 30 29
10 10 11 10 10 12 15 18 20 22 24 27 26 26 26 24 21 20 23 25 26 27 28 28 29 29 29 30 30 29 27 25 19 20 21 22 21 24 30 32 31 29 26
11 12 10 10 14 14 15 19 21 25 26 26 27 25 24 22 20 21 22 27 30 31 34 36 34 33 33 29 27 26 27 29 27 21 18 19 18 22 27 30 29 28 26
13 11 10 10 13 15 18 21 24 26 27 27 24 24 25 25 23 26 27 30 31 34 36 34 36 36 34 30 29 29 28 26 23 20 19 10 14 24 27 26 27 26 26
10 9 13 13 17 17 20 23 25 26 25 24 23 27 30 31 29 27 29 31 34 35 33 33 32 32 33 31 27 26 26 23 20 16 11 11 16 25 27 23 24 24 22
11 13 14 15 18 20 20 23 24 25 23 23 27 28 28 29 29 30 33 35 34 35 35 35 33 32 30 28 25 23 23 22 22 16 12 12 13 18 22 21 21 22 20
12 13 15 17 18 18 21 23 23 26 21 21 23 27 26 30 34 34 35 37 35 35 33 33 31 30 28 27 25 23 23 21 18 14 11 9 13 18 20 21 20 19 19
12 14 15 16 17 20 21 20 19 14 17 23 26 30 26 31 34 37 39 36 33 33 32 31 31 29 27 27 28 26 24 23 21 13 14 17 15 17 19 19 19 18 17
12 15 15 16 19 18 18 20 16 20 25 26 28 30 31 35 39 40 37 33 32 31 33 31 31 31 28 27 27 26 24 24 21 15 15 14 16 17 16 15 15 14 14
12 14 16 18 15 20 21 24 23 25 24 26 28 31 35 38 38 37 36 35 33 33 31 31 31 31 29 27 27 24 24 23 20 18 17 17 16 16 16 15 15 13 13
12 15 17 17 19 19 22 25 28 25 28 29 32 34 34 34 37 37 38 34 32 32 29 29 29 31 28 26 26 24 23 20 16 16 16 15 15 15 16 14 15 14 12
12 13 16 18 19 21 22 22 23 24 27 29 32 37 40 38 37 37 35 31 30 30 29 29 29 29 26 23 22 22 20 7 10 13 14 14 14 15 15 14 13 13 12
13 15 17 20 21 23 24 25 21 24 25 27 31 38 42 40 36 35 32 29 31 30 29 29 28 26 23 20 21 20 7 12 9 12 11 14 14 14 14 15 14 15 15
14 14 17 23 21 23 25 24 26 28 30 32 33 38 39 37 34 35 33 32 31 30 29 28 27 23 19 19 19 15 10 9 8 9 13 16 15 13 13 15 17 17 16
14 15 18 19 22 25 24 26 28 30 32 35 37 37 35 33 36 34 32 31 31 31 29 28 23 21 19 18 19 16 11 9 7 10 13 15 13 14 14 14 18 17 14
14 17 18 20 23 24 25 27 29 32 34 37 35 33 35 33 33 31 31 31 31 30 29 25 27 26 25 24 22 17 13 14 14 17 14 13 14 14 12 16 16 14 15
11 15 19 20 22 23 26 28 31 32 36 36 34 32 34 32 32 30 30 31 31 29 26 25 29 30 30 27 19 15 13 17 17 18 14 14 12 12 15 16 15 15 15
14 17 18 20 22 24 27 30 31 33 35 33 32 32 32 31 30 29 30 31 29 30 30 31 31 32 31 5 10 9 13 15 16 15 13 11 10 14 18 17 15 13 13
14 16 18 20 22 25 28 29 31 34 33 32 32 32 31 29 28 28 30 29 27 30 32 33 33 33 31 6 7 7 10 14 14 14 11 9 10 13 17 15 13 12 11
15 15 18 20 23 25 28 29 31 33 31 32 32 31 30 27 27 28 30 27 26 29 29 31 31 30 15 8 6 6 9 13 13 13 11 11 12 13 16 14 12 10 8
15 16 20 22 24 26 28 29 30 34 33 31 31 29 28 26 25 27 28 24 25 26 26 26 27 23 13 11 9 8 10 13 13 11 11 14 15 16 19 17 14 12 10
Wind_Direction
2 337 336 344 351 352 350 353 354 351 348 348 349 348 347 346 345 344 344 344 344 343 344 342 342 342 340 340 340 340 339 340 338 341 342 343 336 331 331 335 331 323 322
25 360 347 347 349 347 343 348 347 347 348 347 345 347 347 347 348 346 347 346 345 344 348 348 342 340 338 338 339 339 338 340 339 340 344 342 341 338 330 328 332 335 325
16 11 352 347 346 346 347 348 346 347 348 346 346 346 346 348 348 349 346 346 349 351 347 342 340 338 336 337 336 335 336 337 338 339 340 343 340 339 334 332 329 326 324
8 8 356 353 351 347 347 347 347 346 346 347 348 348 347 348 348 348 348 350 348 346 343 340 339 340 339 338 336 334 334 333 334 336 335 337 338 336 334 328 327 323 317
5 357 351 352 352 353 353 349 346 345 346 348 349 351 349 348 350 353 352 349 347 345 344 344 344 342 342 343 342 337 330 327 327 331 329 326 328 332 331 331 324 320 314
346 342 347 345 347 348 349 346 345 346 346 351 349 346 347 349 352 352 350 347 345 344 344 346 347 345 343 341 340 340 334 329 327 330 328 326 323 321 322 325 321 324 327
351 345 341 344 347 346 346 344 343 344 346 344 348 348 348 349 351 351 349 348 345 345 346 345 342 343 342 341 340 342 342 336 323 326 327 329 325 324 315 316 315 321 328
347 342 345 347 342 343 344 346 346 342 347 350 349 350 350 351 350 349 345 348 350 351 350 347 346 344 340 337 341 343 342 341 337 336 333 330 327 323 316 312 314 318 328
347 349 352 355 353 351 346 350 348 349 348 349 353 352 352 351 348 346 352 352 351 347 346 346 342 341 346 348 345 341 338 337 338 335 330 333 334 318 313 317 302 309 314
11 16 3 6 356 1 0 354 350 351 354 356 357 353 355 0 7 7 0 355 350 348 347 345 346 347 344 342 340 339 337 338 339 345 345 347 338 313 299 314 300 285 298
22 16 12 11 3 360 3 358 358 350 356 358 357 2 9 8 7 4 359 355 353 349 348 349 350 352 352 355 355 354 350 351 345 349 356 345 345 323 307 306 292 248 244
22 17 10 8 6 8 358 354 357 349 0 2 7 7 12 10 5 1 356 355 356 354 355 355 356 358 360 1 3 4 0 358 358 7 17 31 351 303 297 278 264 265 236
14 9 10 11 12 9 11 9 8 15 10 6 6 5 7 3 0 357 354 358 0 359 359 358 359 1 6 7 3 4 6 2 356 31 12 317 331 293 271 265 248 258 256
8 9 13 13 7 11 12 12 19 12 7 9 7 5 3 358 355 354 358 1 2 3 1 4 5 5 9 11 11 13 11 359 348 16 348 355 307 260 255 245 238 251 248
11 14 14 10 11 6 3 6 15 12 17 15 13 11 3 358 359 358 1 3 6 7 8 10 9 10 14 17 19 24 16 4 348 322 303 279 278 247 238 229 221 227 217
13 12 15 19 21 23 17 15 18 25 26 27 22 15 10 7 2 2 3 10 13 13 16 17 16 14 17 22 24 31 30 37 315 289 284 271 254 234 221 228 218 206 200
13 24 17 18 18 21 20 21 25 27 26 24 20 14 8 5 5 6 12 17 18 18 21 20 20 18 23 31 33 37 47 211 236 243 250 242 237 223 217 218 221 205 204
17 20 16 16 14 21 20 20 33 26 21 19 17 11 7 5 12 16 20 23 21 22 23 22 22 25 33 41 43 50 149 276 245 184 232 210 208 208 211 208 203 196 194
16 21 19 10 21 21 20 25 25 23 20 18 14 11 10 13 17 17 20 23 24 24 26 28 30 38 49 57 60 89 152 258 247 199 189 184 190 200 200 196 193 190 185
23 29 16 20 16 17 24 24 22 21 20 17 15 15 17 20 20 23 26 28 28 29 33 35 44 50 61 74 83 110 154 176 196 184 179 177 186 186 186 189 185 181 179
27 18 23 17 21 22 25 24 22 21 20 16 19 22 22 25 27 30 32 32 33 36 40 50 49 55 62 75 96 127 150 152 161 159 169 176 178 180 187 178 177 176 169
28 22 12 24 26 27 27 25 22 25 21 20 24 28 27 30 32 36 36 36 38 43 51 57 54 55 61 84 120 140 151 149 155 153 159 164 174 178 172 170 168 166 167
36 27 19 26 31 29 26 24 28 27 24 28 30 32 31 34 37 40 40 40 46 51 56 53 58 56 67 146 145 152 152 157 160 162 161 162 164 163 164 164 164 163 167
18 19 31 33 31 34 29 29 31 27 29 32 35 34 35 39 43 45 44 47 57 59 56 55 51 48 77 137 150 158 158 160 161 163 166 166 162 160 161 161 161 164 168
27 16 26 36 42 39 33 35 31 28 33 35 37 38 39 45 49 49 49 59 67 66 69 70 75 82 117 132 144 158 165 167 168 170 171 169 164 165 166 166 168 170 168
28 20 23 46 47 36 37 38 34 31 36 38 40 41 45 51 55 55 57 73 74 78 82 88 87 103 119 129 141 158 168 170 171 176 176 169 168 168 168 168 171 173 177